TimeEDT,TemperatureF,Dew PointF,Humidity,Sea Level PressureIn,VisibilityMPH,Wind Direction,Wind SpeedMPH,Gust SpeedMPH,PrecipitationIn,Events,Conditions,WindDirDegrees,DateUTC
12:58 AM,72.9,65.8,79,29.80,10.0,SW,4.6,-,N/A,,Overcast,220,2013-08-31 04:58:00
1:58 AM,72.3,65.7,79,29.78,10.0,SW,5.8,-,N/A,,Mostly Cloudy,220,2013-08-31 05:58:00
2:58 AM,70.9,65.7,83,29.78,10.0,SSW,6.9,-,N/A,,Mostly Cloudy,210,2013-08-31 06:58:00
3:58 AM,70.3,65.7,85,29.79,10.0,West,5.8,-,N/A,,Mostly Cloudy,260,2013-08-31 07:58:00
4:58 AM,70.2,66.2,87,29.80,10.0,WSW,4.6,-,N/A,,Overcast,240,2013-08-31 08:58:00
5:58 AM,68.9,66.0,90,29.79,10.0,WSW,4.6,-,N/A,,Overcast,240,2013-08-31 09:58:00
6:58 AM,69.6,66.6,90,29.80,10.0,South,3.5,-,N/A,,Overcast,190,2013-08-31 10:58:00
7:58 AM,70.5,66.9,88,29.81,10.0,SSW,4.6,-,N/A,,Overcast,210,2013-08-31 11:58:00
8:58 AM,72.1,67.6,86,29.83,10.0,WSW,5.8,-,N/A,,Overcast,240,2013-08-31 12:58:00
9:58 AM,74.1,67.1,79,29.81,10.0,East,1.2,-,0.00,Rain,Light Rain,80,2013-08-31 13:58:00
10:16 AM,75.2,66.2,73,29.79,10.0,West,1.2,-,N/A,,Overcast,280,2013-08-31 14:16:00
10:58 AM,76.6,67.8,74,29.82,10.0,WSW,8.1,-,0.00,,Overcast,240,2013-08-31 14:58:00
11:58 AM,77.4,69.3,76,29.82,10.0,West,6.9,-,N/A,,Overcast,270,2013-08-31 15:58:00
12:58 PM,78.1,69.6,75,29.81,10.0,Variable,4.6,-,N/A,,Overcast,0,2013-08-31 16:58:00
1:58 PM,79.0,70.5,75,29.80,10.0,SW,6.9,-,N/A,,Overcast,220,2013-08-31 17:58:00
2:58 PM,81.5,71.2,71,29.79,7.0,SW,8.1,-,N/A,,Overcast,220,2013-08-31 18:58:00
3:58 PM,79.5,71.8,77,29.79,7.0,Variable,5.8,-,N/A,,Overcast,0,2013-08-31 19:58:00
4:58 PM,77.9,71.2,80,29.78,6.0,South,5.8,-,N/A,,Haze,170,2013-08-31 20:58:00
5:58 PM,78.1,71.4,80,29.77,6.0,SSE,6.9,-,N/A,,Haze,150,2013-08-31 21:58:00
6:58 PM,76.1,71.1,84,29.77,6.0,South,5.8,-,N/A,,Haze,170,2013-08-31 22:58:00
7:58 PM,76.3,70.9,83,29.79,7.0,SSW,3.5,-,N/A,,Overcast,200,2013-08-31 23:58:00
8:58 PM,75.2,70.7,86,29.80,7.0,SSW,5.8,-,N/A,,Overcast,210,2013-09-01 00:58:00
9:58 PM,74.3,70.3,87,29.80,7.0,SSW,4.6,-,N/A,,Overcast,200,2013-09-01 01:58:00
10:58 PM,73.4,70.7,91,29.79,7.0,South,5.8,-,N/A,,Overcast,190,2013-09-01 02:58:00
11:58 PM,73.2,71.1,93,29.79,6.0,SSW,5.8,-,N/A,,Overcast,210,2013-09-01 03:58:00